START_TIME,STEP,MOV.,M29,t_acc.,H22,t_acc.,H26,t_acc.,H30,t_acc.
1979-07-05 21:00:32.620 ,0,0,1.,24.0,0.,24.0,0.,24.0,0.,24.0
1979-07-05 21:00:56.620 ,0,1,0.,24.0,0.,24.0,0.,24.0,0.,24.0
1979-07-05 21:01:20.610 ,0,0,0.,24.0,0.,24.0,0.,24.0,0.,24.0
1979-07-05 21:01:44.620 ,1,1,1.,24.0,0.,24.0,0.,24.0,0.,24.0
1979-07-05 21:02:08.610 ,1,0,0.,24.0,0.,24.0,0.,24.0,0.,24.0
1979-07-05 21:02:32.620 ,2,1,0.,24.0,0.,24.0,0.,24.0,0.,24.0
1979-07-05 21:02:56.620 ,2,0,0.,24.0,0.,24.0,0.,24.0,0.,24.0
1979-07-05 21:03:20.620 ,3,1,0.,24.0,0.,24.0,0.,24.0,0.,24.0
1979-07-05 21:03:44.620 ,3,0,0.,24.0,0.,24.0,0.,24.0,0.,24.0
1979-07-05 21:04:08.610 ,4,1,0.,24.0,0.,24.0,0.,24.0,0.,24.0
1979-07-05 21:04:32.610 ,4,0,0.,24.0,0.,24.0,0.,24.0,0.,24.0
1979-07-05 21:04:56.610 ,5,1,0.,24.0,0.,24.0,0.,24.0,0.,24.0
1979-07-05 21:05:20.610 ,5,0,0.,24.0,0.,24.0,0.,24.0,0.,24.0
1979-07-05 21:05:44.610 ,6,1,0.,24.0,0.,24.0,0.,24.0,0.,24.0
1979-07-05 21:06:08.610 ,6,0,0.,24.0,0.,24.0,0.,24.0,0.,24.0
1979-07-05 21:06:32.610 ,7,1,0.,24.0,0.,24.0,0.,24.0,0.,24.0
1979-07-05 21:06:56.610 ,7,0,0.,24.0,0.,24.0,0.,24.0,0.,24.0
1979-07-05 21:07:20.610 ,7,1,0.,24.0,0.,24.0,0.,24.0,0.,24.0
1979-07-05 21:07:44.610 ,7,0,0.,24.0,0.,24.0,0.,24.0,0.,24.0
1979-07-05 21:08:08.610 ,6,1,0.,24.0,0.,24.0,0.,24.0,0.,24.0
1979-07-05 21:08:32.610 ,6,0,0.,24.0,0.,24.0,0.,24.0,0.,24.0
1979-07-05 21:08:56.620 ,5,1,0.,24.0,0.,24.0,0.,24.0,0.,24.0
1979-07-05 21:09:20.620 ,5,0,0.,24.0,0.,24.0,0.,24.0,0.,24.0
1979-07-05 21:09:44.620 ,4,1,0.,24.0,0.,24.0,0.,24.0,0.,24.0
1979-07-05 21:10:08.620 ,4,0,0.,24.0,0.,24.0,0.,24.0,0.,24.0
1979-07-05 21:10:32.620 ,3,1,0.,24.0,0.,24.0,0.,24.0,0.,24.0
1979-07-05 21:10:56.620 ,3,0,0.,24.0,0.,24.0,0.,24.0,0.,24.0
1979-07-05 21:11:20.620 ,2,1,0.,24.0,0.,24.0,0.,24.0,0.,24.0
1979-07-05 21:11:44.620 ,2,0,0.,24.0,0.,24.0,0.,24.0,0.,24.0
1979-07-05 21:12:08.620 ,1,1,0.,24.0,0.,24.0,0.,24.0,0.,24.0
1979-07-05 21:12:32.620 ,1,0,0.,24.0,0.,24.0,0.,24.0,0.,24.0
1979-07-05 21:12:56.620 ,0,1,0.,24.0,0.,24.0,0.,24.0,0.,24.0
1979-07-05 21:13:20.620 ,0,0,0.,24.0,0.,24.0,0.,24.0,0.,24.0
1979-07-05 21:13:44.620 ,0,1,0.,24.0,0.,24.0,0.,24.0,0.,24.0
1979-07-05 21:14:08.620 ,0,0,0.,24.0,0.,24.0,0.,24.0,0.,24.0
1979-07-05 21:14:32.620 ,1,1,0.,24.0,0.,24.0,0.,24.0,0.,24.0
1979-07-05 21:14:56.620 ,1,0,0.,24.0,0.,24.0,0.,24.0,0.,24.0
1979-07-05 21:15:20.620 ,2,1,0.,24.0,0.,24.0,0.,24.0,0.,24.0
1979-07-05 21:15:44.620 ,2,0,0.,24.0,0.,24.0,0.,24.0,0.,24.0
1979-07-05 21:16:08.620 ,3,1,0.,24.0,0.,24.0,0.,24.0,0.,24.0
1979-07-05 21:16:32.620 ,3,0,0.,24.0,0.,24.0,0.,24.0,0.,24.0
1979-07-05 21:16:56.620 ,4,1,0.,24.0,0.,24.0,0.,24.0,0.,24.0
1979-07-05 21:17:20.610 ,4,0,0.,24.0,0.,24.0,0.,24.0,0.,24.0
1979-07-05 21:17:44.610 ,5,1,0.,24.0,0.,24.0,0.,24.0,0.,24.0
1979-07-05 21:18:08.610 ,5,0,0.,24.0,0.,24.0,0.,24.0,0.,24.0
1979-07-05 21:18:32.610 ,6,1,0.,24.0,0.,24.0,0.,24.0,0.,24.0
1979-07-05 21:18:56.610 ,6,0,0.,24.0,0.,24.0,0.,24.0,0.,24.0
1979-07-05 21:19:20.610 ,7,1,0.,24.0,0.,24.0,0.,24.0,0.,24.0
1979-07-05 21:19:44.610 ,7,0,0.,24.0,0.,24.0,0.,24.0,0.,24.0
1979-07-05 21:20:08.610 ,7,1,0.,24.0,0.,24.0,0.,24.0,0.,24.0
1979-07-05 21:20:32.610 ,7,0,0.,24.0,0.,24.0,0.,24.0,1.,24.0
1979-07-05 21:20:56.610 ,6,1,0.,24.0,0.,24.0,0.,24.0,0.,24.0
1979-07-05 21:21:20.610 ,6,0,0.,24.0,0.,24.0,0.,24.0,0.,24.0
1979-07-05 21:21:44.610 ,5,1,0.,24.0,0.,24.0,0.,24.0,0.,24.0
1979-07-05 21:22:08.610 ,5,0,0.,24.0,0.,24.0,0.,24.0,0.,24.0
1979-07-05 21:22:32.610 ,4,1,1.,24.0,0.,24.0,0.,24.0,0.,24.0
1979-07-05 21:22:56.610 ,4,0,0.,24.0,0.,24.0,0.,24.0,0.,24.0
1979-07-05 21:23:20.610 ,3,1,0.,24.0,0.,24.0,0.,24.0,0.,24.0
1979-07-05 21:23:44.610 ,3,0,0.,24.0,0.,24.0,0.,24.0,0.,24.0
1979-07-05 21:24:08.610 ,2,1,0.,24.0,0.,24.0,0.,24.0,0.,24.0
1979-07-05 21:24:32.610 ,2,0,0.,24.0,0.,24.0,0.,24.0,0.,24.0
1979-07-05 21:24:56.610 ,1,1,0.,24.0,0.,24.0,0.,24.0,0.,24.0
1979-07-05 21:25:20.610 ,1,0,0.,24.0,0.,24.0,0.,24.0,0.,24.0
1979-07-05 21:25:44.610 ,0,1,0.,24.0,0.,24.0,0.,24.0,0.,24.0
1979-07-05 21:26:08.610 ,0,0,0.,24.0,0.,24.0,0.,24.0,0.,24.0
1979-07-05 21:26:32.610 ,0,1,0.,24.0,0.,24.0,0.,24.0,0.,24.0
1979-07-05 21:26:56.610 ,0,0,0.,24.0,0.,24.0,0.,24.0,0.,24.0
1979-07-05 21:27:20.610 ,1,1,0.,24.0,0.,24.0,0.,24.0,0.,24.0
1979-07-05 21:27:44.610 ,1,0,0.,24.0,0.,24.0,0.,24.0,0.,24.0
1979-07-05 21:28:08.610 ,2,1,0.,24.0,0.,24.0,0.,24.0,0.,24.0
1979-07-05 21:28:32.610 ,2,0,0.,24.0,0.,24.0,0.,24.0,0.,24.0
1979-07-05 21:28:56.610 ,3,1,0.,24.0,0.,24.0,0.,24.0,0.,24.0
1979-07-05 21:29:20.610 ,3,0,0.,24.0,0.,24.0,0.,24.0,0.,24.0
1979-07-05 21:29:44.610 ,4,1,0.,24.0,0.,24.0,0.,24.0,0.,24.0
1979-07-05 21:30:08.610 ,4,0,0.,24.0,0.,24.0,0.,24.0,0.,24.0
1979-07-05 21:30:32.610 ,5,1,0.,24.0,0.,24.0,0.,24.0,0.,24.0
1979-07-05 21:30:56.610 ,5,0,0.,24.0,0.,24.0,0.,24.0,0.,24.0
1979-07-05 21:31:20.610 ,6,1,0.,24.0,0.,24.0,0.,24.0,0.,24.0
1979-07-05 21:31:44.610 ,6,0,0.,24.0,0.,24.0,0.,24.0,0.,24.0
1979-07-05 21:32:08.610 ,7,1,0.,24.0,0.,24.0,0.,24.0,0.,24.0
1979-07-05 21:32:32.610 ,7,0,0.,24.0,0.,24.0,0.,24.0,0.,24.0
1979-07-05 21:32:56.610 ,7,1,0.,24.0,0.,24.0,0.,24.0,0.,24.0
1979-07-05 21:33:20.610 ,7,0,0.,24.0,0.,24.0,0.,24.0,0.,24.0
1979-07-05 21:33:44.610 ,6,1,0.,24.0,0.,24.0,0.,24.0,0.,24.0
1979-07-05 21:34:08.610 ,6,0,0.,24.0,0.,24.0,0.,24.0,0.,24.0
1979-07-05 21:34:32.610 ,5,1,0.,24.0,0.,24.0,0.,24.0,0.,24.0
1979-07-05 21:34:56.610 ,5,0,0.,24.0,0.,24.0,0.,24.0,0.,24.0
1979-07-05 21:35:20.610 ,4,1,0.,24.0,0.,24.0,0.,24.0,0.,24.0
1979-07-05 21:35:44.610 ,4,0,0.,24.0,0.,24.0,0.,24.0,0.,24.0
1979-07-05 21:36:08.610 ,3,1,0.,24.0,0.,24.0,0.,24.0,0.,24.0
1979-07-05 21:36:32.610 ,3,0,0.,24.0,0.,24.0,0.,24.0,0.,24.0
1979-07-05 21:36:56.610 ,2,1,0.,24.0,0.,24.0,0.,24.0,0.,24.0
1979-07-05 21:37:20.610 ,2,0,0.,24.0,0.,24.0,0.,24.0,0.,24.0
1979-07-05 21:37:44.610 ,1,1,0.,24.0,0.,24.0,0.,24.0,0.,24.0
1979-07-05 21:38:08.610 ,1,0,0.,24.0,0.,24.0,0.,24.0,0.,24.0
1979-07-05 21:38:32.610 ,0,1,0.,24.0,0.,24.0,0.,24.0,0.,24.0
1979-07-05 21:38:56.610 ,0,0,0.,24.0,0.,24.0,0.,24.0,0.,24.0
1979-07-05 21:39:20.610 ,0,1,0.,24.0,0.,24.0,0.,24.0,0.,24.0
1979-07-05 21:39:44.610 ,0,0,0.,24.0,0.,24.0,0.,24.0,0.,24.0
1979-07-05 21:40:08.610 ,1,1,0.,24.0,0.,24.0,0.,24.0,0.,24.0
1979-07-05 21:40:32.610 ,1,0,0.,24.0,0.,24.0,0.,24.0,0.,24.0
1979-07-05 21:40:56.610 ,2,1,0.,24.0,0.,24.0,0.,24.0,0.,24.0
1979-07-05 21:41:20.610 ,2,0,0.,24.0,0.,24.0,0.,24.0,0.,24.0
1979-07-05 21:41:44.610 ,3,1,0.,24.0,0.,24.0,0.,24.0,0.,24.0
1979-07-05 21:42:08.610 ,3,0,0.,24.0,0.,24.0,0.,24.0,0.,24.0
1979-07-05 21:42:32.610 ,4,1,0.,24.0,0.,24.0,0.,24.0,0.,24.0
1979-07-05 21:42:56.610 ,4,0,0.,24.0,0.,24.0,0.,24.0,0.,24.0
1979-07-05 21:43:20.610 ,5,1,0.,24.0,0.,24.0,0.,24.0,0.,24.0
1979-07-05 21:43:44.610 ,5,0,0.,24.0,0.,24.0,0.,24.0,0.,24.0
1979-07-05 21:44:08.610 ,6,1,0.,24.0,0.,24.0,0.,24.0,0.,24.0
1979-07-05 21:44:32.610 ,6,0,0.,24.0,0.,24.0,0.,24.0,0.,24.0
1979-07-05 21:44:56.610 ,7,1,0.,24.0,0.,24.0,0.,24.0,0.,24.0
1979-07-05 21:45:20.610 ,7,0,0.,24.0,0.,24.0,0.,24.0,0.,24.0
1979-07-05 21:45:44.610 ,7,1,0.,24.0,0.,24.0,0.,24.0,0.,24.0
1979-07-05 21:46:08.610 ,7,0,1.,24.0,0.,24.0,0.,24.0,0.,24.0
1979-07-05 21:46:32.610 ,6,1,0.,24.0,0.,24.0,0.,24.0,0.,24.0
1979-07-05 21:46:56.610 ,6,0,0.,24.0,0.,24.0,0.,24.0,0.,24.0
1979-07-05 21:47:20.610 ,5,1,0.,24.0,0.,24.0,0.,24.0,0.,24.0
1979-07-05 21:47:44.610 ,5,0,0.,24.0,0.,24.0,0.,24.0,0.,24.0
1979-07-05 21:48:08.610 ,4,1,0.,24.0,0.,24.0,0.,24.0,0.,24.0
1979-07-05 21:48:32.610 ,4,0,0.,24.0,0.,24.0,0.,24.0,0.,24.0
1979-07-05 21:48:56.610 ,3,1,0.,24.0,0.,24.0,0.,24.0,0.,24.0
1979-07-05 21:49:20.610 ,3,0,0.,24.0,0.,24.0,0.,24.0,0.,24.0
1979-07-05 21:49:44.610 ,2,1,0.,24.0,0.,24.0,0.,24.0,0.,24.0
1979-07-05 21:50:08.610 ,2,0,0.,24.0,0.,24.0,0.,24.0,0.,24.0
1979-07-05 21:50:32.610 ,1,1,0.,24.0,0.,24.0,0.,24.0,0.,24.0
1979-07-05 21:50:56.610 ,0,0,0.,24.0,0.,24.0,0.,24.0,0.,24.0
1979-07-05 21:51:27.210 ,0,0,0.,24.0,0.,24.0,0.,24.0,0.,24.0
1979-07-05 21:51:44.610 ,0,0,0.,24.0,0.,24.0,0.,24.0,0.,24.0
1979-07-05 21:52:08.610 ,0,0,0.,24.0,0.,24.0,0.,24.0,0.,24.0
1979-07-05 21:52:32.610 ,0,0,0.,24.0,0.,24.0,0.,24.0,0.,24.0
1979-07-05 21:52:56.610 ,7,0,0.,24.0,0.,24.0,0.,24.0,0.,24.0
1979-07-05 21:53:20.610 ,7,0,0.,24.0,0.,24.0,0.,24.0,0.,24.0
1979-07-05 21:53:44.610 ,7,0,0.,24.0,0.,24.0,0.,24.0,0.,24.0
1979-07-05 21:54:08.610 ,7,0,0.,24.0,0.,24.0,0.,24.0,0.,24.0
1979-07-05 21:54:32.610 ,7,0,0.,24.0,0.,24.0,0.,24.0,0.,24.0
1979-07-05 21:54:56.610 ,7,0,0.,24.0,0.,24.0,0.,24.0,0.,24.0
1979-07-05 21:55:20.610 ,5,1,0.,24.0,0.,24.0,0.,24.0,0.,24.0
1979-07-05 21:55:44.610 ,1,1,0.,24.0,0.,24.0,0.,24.0,0.,24.0
1979-07-05 21:56:08.610 ,2,1,0.,24.0,0.,24.0,0.,24.0,0.,24.0
1979-07-05 21:56:32.610 ,6,1,0.,24.0,0.,24.0,0.,24.0,0.,24.0
1979-07-05 21:56:56.610 ,5,1,0.,24.0,0.,24.0,0.,24.0,0.,24.0
1979-07-05 21:57:20.610 ,1,1,0.,24.0,0.,24.0,0.,24.0,0.,24.0
1979-07-05 21:57:44.610 ,2,1,0.,24.0,0.,24.0,0.,24.0,0.,24.0
1979-07-05 21:58:08.610 ,6,1,0.,24.0,0.,24.0,0.,24.0,0.,24.0
1979-07-05 21:58:32.610 ,5,1,0.,24.0,0.,24.0,0.,24.0,0.,24.0
1979-07-05 21:58:56.610 ,1,1,0.,24.0,0.,24.0,0.,24.0,0.,24.0
1979-07-05 21:59:20.610 ,0,0,0.,24.0,0.,24.0,0.,24.0,0.,24.0
1979-07-05 21:59:44.610 ,0,0,0.,24.0,0.,24.0,0.,24.0,0.,24.0
1979-07-05 22:00:08.610 ,5,1,0.,24.0,0.,24.0,0.,24.0,0.,24.0
1979-07-05 22:00:32.610 ,1,1,0.,24.0,0.,24.0,0.,24.0,0.,24.0
1979-07-05 22:00:56.610 ,2,1,0.,24.0,0.,24.0,0.,24.0,0.,24.0
1979-07-05 22:01:20.610 ,6,1,0.,24.0,0.,24.0,0.,24.0,0.,24.0
1979-07-05 22:01:44.610 ,5,1,0.,24.0,0.,24.0,0.,24.0,0.,24.0
1979-07-05 22:02:08.610 ,1,1,0.,24.0,0.,24.0,0.,24.0,0.,24.0
1979-07-05 22:02:32.610 ,2,1,0.,24.0,0.,24.0,0.,24.0,0.,24.0
1979-07-05 22:02:56.610 ,6,1,0.,24.0,0.,24.0,0.,24.0,0.,24.0
1979-07-05 22:03:20.610 ,5,1,0.,24.0,0.,24.0,0.,24.0,0.,24.0
1979-07-05 22:03:44.610 ,1,1,0.,24.0,0.,24.0,0.,24.0,0.,24.0
1979-07-05 22:04:08.610 ,2,1,0.,24.0,0.,24.0,0.,24.0,0.,24.0
1979-07-05 22:04:32.610 ,6,1,0.,24.0,0.,24.0,0.,24.0,0.,24.0
1979-07-05 22:04:56.610 ,5,1,0.,24.0,0.,24.0,0.,24.0,0.,24.0
1979-07-05 22:05:20.610 ,1,1,0.,24.0,0.,24.0,0.,24.0,0.,24.0
1979-07-05 22:05:44.610 ,0,0,0.,24.0,0.,24.0,0.,24.0,0.,24.0
1979-07-05 22:06:08.610 ,0,0,0.,24.0,0.,24.0,0.,24.0,0.,24.0
1979-07-05 22:06:32.610 ,5,1,0.,24.0,0.,24.0,0.,24.0,0.,24.0
1979-07-05 22:06:56.610 ,5,0,0.,24.0,0.,24.0,0.,24.0,0.,24.0
1979-07-05 22:07:20.610 ,4,1,0.,24.0,0.,24.0,0.,24.0,0.,24.0
1979-07-05 22:07:44.610 ,4,0,0.,24.0,0.,24.0,0.,24.0,0.,24.0
1979-07-05 22:08:08.610 ,3,1,0.,24.0,0.,24.0,0.,24.0,0.,24.0
1979-07-05 22:08:32.610 ,3,0,0.,24.0,0.,24.0,0.,24.0,0.,24.0
1979-07-05 22:08:56.610 ,2,1,0.,24.0,0.,24.0,0.,24.0,0.,24.0
1979-07-05 22:09:20.610 ,2,0,0.,24.0,0.,24.0,0.,24.0,0.,24.0
1979-07-05 22:09:44.610 ,1,1,0.,24.0,0.,24.0,0.,24.0,0.,24.0
1979-07-05 22:10:08.610 ,1,0,0.,24.0,0.,24.0,0.,24.0,0.,24.0
1979-07-05 22:10:32.610 ,0,1,0.,24.0,0.,24.0,0.,24.0,0.,24.0
1979-07-05 22:10:56.610 ,0,0,0.,24.0,0.,24.0,0.,24.0,0.,24.0
1979-07-05 22:11:20.610 ,0,1,0.,24.0,0.,24.0,0.,24.0,0.,24.0
1979-07-05 22:11:44.610 ,0,0,0.,24.0,0.,24.0,0.,24.0,0.,24.0
1979-07-05 22:12:08.610 ,1,1,0.,24.0,0.,24.0,0.,24.0,0.,24.0
1979-07-05 22:12:32.610 ,1,0,0.,24.0,0.,24.0,0.,24.0,0.,24.0
1979-07-05 22:12:56.610 ,2,1,0.,24.0,0.,24.0,0.,24.0,0.,24.0
1979-07-05 22:13:20.610 ,2,0,1.,24.0,0.,24.0,0.,24.0,0.,24.0
1979-07-05 22:13:44.610 ,3,1,0.,24.0,0.,24.0,0.,24.0,0.,24.0
1979-07-05 22:14:08.610 ,3,0,0.,24.0,0.,24.0,0.,24.0,0.,24.0
1979-07-05 22:14:32.610 ,4,1,0.,24.0,0.,24.0,0.,24.0,0.,24.0
1979-07-05 22:14:56.610 ,4,0,0.,24.0,0.,24.0,0.,24.0,0.,24.0
1979-07-05 22:15:20.610 ,5,1,0.,24.0,0.,24.0,0.,24.0,0.,24.0
1979-07-05 22:15:44.610 ,5,0,0.,24.0,0.,24.0,0.,24.0,0.,24.0
1979-07-05 22:16:08.610 ,6,1,0.,24.0,0.,24.0,0.,24.0,0.,24.0
1979-07-05 22:16:32.610 ,6,0,0.,24.0,0.,24.0,0.,24.0,0.,24.0
1979-07-05 22:16:56.610 ,7,1,0.,24.0,0.,24.0,0.,24.0,0.,24.0
1979-07-05 22:17:20.610 ,7,0,0.,24.0,0.,24.0,0.,24.0,0.,24.0
1979-07-05 22:17:44.610 ,7,1,0.,24.0,0.,24.0,0.,24.0,0.,24.0
1979-07-05 22:18:08.610 ,7,0,0.,24.0,0.,24.0,0.,24.0,0.,24.0
1979-07-05 22:18:32.610 ,6,1,0.,24.0,0.,24.0,0.,24.0,0.,24.0
1979-07-05 22:18:56.610 ,6,0,0.,24.0,0.,24.0,0.,24.0,0.,24.0
1979-07-05 22:19:20.610 ,5,1,0.,24.0,0.,24.0,0.,24.0,0.,24.0
1979-07-05 22:19:44.610 ,5,0,0.,24.0,0.,24.0,0.,24.0,0.,24.0
1979-07-05 22:20:08.610 ,4,1,0.,24.0,0.,24.0,0.,24.0,0.,24.0
1979-07-05 22:20:32.610 ,4,0,0.,24.0,0.,24.0,0.,24.0,0.,24.0
1979-07-05 22:20:56.610 ,3,1,0.,24.0,0.,24.0,0.,24.0,0.,24.0
1979-07-05 22:21:20.610 ,3,0,0.,24.0,0.,24.0,0.,24.0,0.,24.0
1979-07-05 22:21:44.610 ,2,1,0.,24.0,0.,24.0,0.,24.0,0.,24.0
1979-07-05 22:22:08.610 ,2,0,0.,24.0,0.,24.0,0.,24.0,0.,24.0
1979-07-05 22:22:32.610 ,1,1,0.,24.0,0.,24.0,0.,24.0,0.,24.0
1979-07-05 22:22:56.610 ,1,0,0.,24.0,0.,24.0,0.,24.0,0.,24.0
1979-07-05 22:23:20.610 ,0,1,0.,24.0,0.,24.0,0.,24.0,0.,24.0
1979-07-05 22:23:44.610 ,0,0,0.,24.0,0.,24.0,0.,24.0,0.,24.0
1979-07-05 22:24:08.610 ,0,1,0.,24.0,0.,24.0,0.,24.0,0.,24.0
1979-07-05 22:24:32.610 ,0,0,0.,24.0,0.,24.0,0.,24.0,0.,24.0
1979-07-05 22:24:56.610 ,1,1,0.,24.0,0.,24.0,0.,24.0,0.,24.0
1979-07-05 22:25:20.610 ,1,0,0.,24.0,0.,24.0,0.,24.0,0.,24.0
1979-07-05 22:25:44.610 ,2,1,0.,24.0,0.,24.0,0.,24.0,0.,24.0
1979-07-05 22:26:08.610 ,2,0,0.,24.0,0.,24.0,0.,24.0,0.,24.0
1979-07-05 22:26:32.610 ,3,1,0.,24.0,0.,24.0,0.,24.0,0.,24.0
1979-07-05 22:26:56.610 ,3,0,1.,24.0,0.,24.0,0.,24.0,0.,24.0
1979-07-05 22:27:20.610 ,4,1,0.,24.0,0.,24.0,0.,24.0,0.,24.0
1979-07-05 22:27:44.610 ,4,0,0.,24.0,0.,24.0,0.,24.0,0.,24.0
1979-07-05 22:28:08.610 ,5,1,0.,24.0,0.,24.0,0.,24.0,0.,24.0
1979-07-05 22:28:32.610 ,5,0,0.,24.0,0.,24.0,0.,24.0,0.,24.0
1979-07-05 22:28:56.610 ,6,1,0.,24.0,0.,24.0,0.,24.0,0.,24.0
1979-07-05 22:29:20.610 ,6,0,0.,24.0,0.,24.0,0.,24.0,0.,24.0
1979-07-05 22:29:44.610 ,7,1,0.,24.0,0.,24.0,0.,24.0,0.,24.0
1979-07-05 22:30:08.610 ,7,0,0.,24.0,0.,24.0,0.,24.0,0.,24.0
1979-07-05 22:30:32.610 ,7,1,0.,24.0,0.,24.0,0.,24.0,0.,24.0
1979-07-05 22:30:56.610 ,7,0,0.,24.0,0.,24.0,0.,24.0,0.,24.0
1979-07-05 22:31:20.610 ,6,1,0.,24.0,0.,24.0,0.,24.0,0.,24.0
1979-07-05 22:31:44.610 ,6,0,0.,24.0,0.,24.0,0.,24.0,0.,24.0
1979-07-05 22:32:08.610 ,5,1,0.,24.0,0.,24.0,0.,24.0,0.,24.0
1979-07-05 22:32:32.610 ,5,0,0.,24.0,0.,24.0,0.,24.0,0.,24.0
1979-07-05 22:32:56.610 ,4,1,0.,24.0,0.,24.0,0.,24.0,0.,24.0
1979-07-05 22:33:20.610 ,4,0,0.,24.0,0.,24.0,0.,24.0,0.,24.0
1979-07-05 22:33:44.610 ,3,1,0.,24.0,0.,24.0,0.,24.0,0.,24.0
1979-07-05 22:34:08.610 ,3,0,0.,24.0,0.,24.0,0.,24.0,0.,24.0
1979-07-05 22:34:32.610 ,2,1,0.,24.0,0.,24.0,0.,24.0,0.,24.0
1979-07-05 22:34:56.610 ,2,0,1.,24.0,0.,24.0,0.,24.0,0.,24.0
1979-07-05 22:35:20.610 ,1,1,0.,24.0,0.,24.0,0.,24.0,0.,24.0
1979-07-05 22:35:44.610 ,1,0,0.,24.0,0.,24.0,0.,24.0,0.,24.0
1979-07-05 22:36:08.610 ,0,1,0.,24.0,0.,24.0,0.,24.0,0.,24.0
1979-07-05 22:36:32.610 ,0,0,0.,24.0,0.,24.0,0.,24.0,1.,24.0
1979-07-05 22:36:56.610 ,0,1,0.,24.0,0.,24.0,0.,24.0,0.,24.0
1979-07-05 22:37:20.610 ,0,0,0.,24.0,0.,24.0,0.,24.0,0.,24.0
1979-07-05 22:37:44.610 ,1,1,0.,24.0,0.,24.0,0.,24.0,0.,24.0
1979-07-05 22:38:08.610 ,1,0,0.,24.0,0.,24.0,0.,24.0,0.,24.0
1979-07-05 22:38:32.610 ,2,1,0.,24.0,0.,24.0,0.,24.0,0.,24.0
1979-07-05 22:38:56.610 ,2,0,0.,24.0,0.,24.0,0.,24.0,0.,24.0
1979-07-05 22:39:20.610 ,3,1,0.,24.0,0.,24.0,0.,24.0,0.,24.0
1979-07-05 22:39:44.610 ,3,0,0.,24.0,0.,24.0,0.,24.0,0.,24.0
1979-07-05 22:40:08.610 ,4,1,0.,24.0,0.,24.0,0.,24.0,0.,24.0
1979-07-05 22:40:32.610 ,4,0,0.,24.0,0.,24.0,0.,24.0,0.,24.0
1979-07-05 22:40:56.610 ,5,1,0.,24.0,0.,24.0,0.,24.0,0.,24.0
1979-07-05 22:41:20.610 ,5,0,0.,24.0,0.,24.0,0.,24.0,0.,24.0
1979-07-05 22:41:44.610 ,6,1,0.,24.0,0.,24.0,0.,24.0,0.,24.0
1979-07-05 22:42:08.610 ,6,0,0.,24.0,0.,24.0,0.,24.0,0.,24.0
1979-07-05 22:42:32.610 ,7,0,1.,24.0,0.,24.0,0.,24.0,0.,24.0
1979-07-05 22:42:56.610 ,7,0,0.,24.0,0.,24.0,0.,24.0,0.,24.0
1979-07-05 22:43:20.610 ,5,1,0.,24.0,0.,24.0,0.,24.0,0.,24.0
1979-07-05 22:43:44.610 ,1,1,0.,24.0,0.,24.0,0.,24.0,0.,24.0
1979-07-05 22:44:08.610 ,2,1,0.,24.0,0.,24.0,0.,24.0,0.,24.0
1979-07-05 22:44:32.610 ,6,1,0.,24.0,0.,24.0,0.,24.0,0.,24.0
1979-07-05 22:44:56.610 ,5,1,0.,24.0,0.,24.0,0.,24.0,0.,24.0
1979-07-05 22:45:20.610 ,1,1,0.,24.0,0.,24.0,0.,24.0,0.,24.0
1979-07-05 22:45:44.610 ,2,1,0.,24.0,0.,24.0,0.,24.0,0.,24.0
1979-07-05 22:46:08.610 ,6,1,0.,24.0,0.,24.0,0.,24.0,0.,24.0
1979-07-05 22:46:32.610 ,5,1,0.,24.0,0.,24.0,0.,24.0,0.,24.0
1979-07-05 22:46:56.610 ,1,1,0.,24.0,0.,24.0,0.,24.0,0.,24.0
1979-07-05 22:47:20.610 ,2,1,0.,24.0,0.,24.0,0.,24.0,0.,24.0
1979-07-05 22:47:44.610 ,6,1,0.,24.0,0.,24.0,0.,24.0,0.,24.0
1979-07-05 22:48:08.610 ,5,1,0.,24.0,0.,24.0,0.,24.0,0.,24.0
1979-07-05 22:48:32.610 ,1,1,0.,24.0,0.,24.0,0.,24.0,0.,24.0
1979-07-05 22:48:56.610 ,2,1,0.,24.0,0.,24.0,0.,24.0,0.,24.0
1979-07-05 22:49:20.610 ,6,1,0.,24.0,0.,24.0,0.,24.0,0.,24.0
1979-07-05 22:49:44.610 ,5,1,0.,24.0,0.,24.0,0.,24.0,0.,24.0
1979-07-05 22:50:08.610 ,1,1,0.,24.0,0.,24.0,0.,24.0,0.,24.0
1979-07-05 22:50:32.610 ,2,1,0.,24.0,0.,24.0,0.,24.0,0.,24.0
1979-07-05 22:50:56.610 ,6,1,0.,24.0,0.,24.0,0.,24.0,0.,24.0
1979-07-05 22:51:20.610 ,5,1,0.,24.0,0.,24.0,0.,24.0,0.,24.0
1979-07-05 22:51:44.610 ,1,1,0.,24.0,0.,24.0,0.,24.0,0.,24.0
1979-07-05 22:52:08.610 ,2,1,0.,24.0,0.,24.0,0.,24.0,0.,24.0
1979-07-05 22:52:32.610 ,6,1,0.,24.0,0.,24.0,0.,24.0,0.,24.0
1979-07-05 22:52:56.610 ,5,1,0.,24.0,0.,24.0,0.,24.0,0.,24.0
1979-07-05 22:53:20.610 ,1,1,0.,24.0,0.,24.0,0.,24.0,0.,24.0
1979-07-05 22:53:44.610 ,0,0,0.,24.0,0.,24.0,0.,24.0,0.,24.0
1979-07-05 22:54:08.610 ,0,0,0.,24.0,0.,24.0,0.,24.0,0.,24.0
1979-07-05 22:54:32.610 ,5,1,0.,24.0,0.,24.0,0.,24.0,0.,24.0
1979-07-05 22:54:56.610 ,5,0,0.,24.0,0.,24.0,0.,24.0,0.,24.0
1979-07-05 22:55:20.610 ,4,1,0.,24.0,0.,24.0,0.,24.0,0.,24.0
1979-07-05 22:55:44.610 ,4,0,0.,24.0,0.,24.0,0.,24.0,0.,24.0
1979-07-05 22:56:08.610 ,3,1,0.,24.0,0.,24.0,0.,24.0,0.,24.0
1979-07-05 22:56:32.610 ,3,0,0.,24.0,0.,24.0,0.,24.0,0.,24.0
1979-07-05 22:56:56.610 ,2,1,0.,24.0,0.,24.0,0.,24.0,0.,24.0
1979-07-05 22:57:20.610 ,2,0,0.,24.0,0.,24.0,0.,24.0,0.,24.0
1979-07-05 22:57:44.610 ,1,1,0.,24.0,0.,24.0,0.,24.0,0.,24.0
1979-07-05 22:58:08.610 ,1,0,0.,24.0,0.,24.0,0.,24.0,0.,24.0
1979-07-05 22:58:32.610 ,0,1,0.,24.0,0.,24.0,0.,24.0,0.,24.0
1979-07-05 22:58:56.610 ,0,0,0.,24.0,0.,24.0,0.,24.0,0.,24.0
1979-07-05 22:59:20.610 ,0,1,0.,24.0,0.,24.0,0.,24.0,0.,24.0
1979-07-05 22:59:44.610 ,0,0,0.,24.0,0.,24.0,0.,24.0,0.,24.0
1979-07-05 23:00:08.610 ,1,1,0.,24.0,0.,24.0,0.,24.0,0.,24.0
1979-07-05 23:00:32.610 ,1,0,0.,24.0,0.,24.0,0.,24.0,0.,24.0
1979-07-05 21:00:32.620 ,0,0,1.,24.0,0.,24.0,0.,24.0,0.,24.0
1979-07-05 21:00:56.620 ,0,1,0.,24.0,0.,24.0,0.,24.0,0.,24.0
1979-07-05 21:01:20.610 ,0,0,0.,24.0,0.,24.0,0.,24.0,0.,24.0
1979-07-05 21:01:44.620 ,1,1,1.,24.0,0.,24.0,0.,24.0,0.,24.0
1979-07-05 21:02:08.610 ,1,0,0.,24.0,0.,24.0,0.,24.0,0.,24.0
1979-07-05 21:02:32.620 ,2,1,0.,24.0,0.,24.0,0.,24.0,0.,24.0
1979-07-05 21:02:56.620 ,2,0,0.,24.0,0.,24.0,0.,24.0,0.,24.0
1979-07-05 21:03:20.620 ,3,1,0.,24.0,0.,24.0,0.,24.0,0.,24.0
1979-07-05 21:03:44.620 ,3,0,0.,24.0,0.,24.0,0.,24.0,0.,24.0
1979-07-05 21:04:08.610 ,4,1,0.,24.0,0.,24.0,0.,24.0,0.,24.0
1979-07-05 21:04:32.610 ,4,0,0.,24.0,0.,24.0,0.,24.0,0.,24.0
1979-07-05 21:04:56.610 ,5,1,0.,24.0,0.,24.0,0.,24.0,0.,24.0
1979-07-05 21:05:20.610 ,5,0,0.,24.0,0.,24.0,0.,24.0,0.,24.0
1979-07-05 21:05:44.610 ,6,1,0.,24.0,0.,24.0,0.,24.0,0.,24.0
1979-07-05 21:06:08.610 ,6,0,0.,24.0,0.,24.0,0.,24.0,0.,24.0
1979-07-05 21:06:32.610 ,7,1,0.,24.0,0.,24.0,0.,24.0,0.,24.0
1979-07-05 21:06:56.610 ,7,0,0.,24.0,0.,24.0,0.,24.0,0.,24.0
1979-07-05 21:07:20.610 ,7,1,0.,24.0,0.,24.0,0.,24.0,0.,24.0
1979-07-05 21:07:44.610 ,7,0,0.,24.0,0.,24.0,0.,24.0,0.,24.0
1979-07-05 21:08:08.610 ,6,1,0.,24.0,0.,24.0,0.,24.0,0.,24.0
1979-07-05 21:08:32.610 ,6,0,0.,24.0,0.,24.0,0.,24.0,0.,24.0
1979-07-05 21:08:56.620 ,5,1,0.,24.0,0.,24.0,0.,24.0,0.,24.0
1979-07-05 21:09:20.620 ,5,0,0.,24.0,0.,24.0,0.,24.0,0.,24.0
1979-07-05 21:09:44.620 ,4,1,0.,24.0,0.,24.0,0.,24.0,0.,24.0
1979-07-05 21:10:08.620 ,4,0,0.,24.0,0.,24.0,0.,24.0,0.,24.0
1979-07-05 21:10:32.620 ,3,1,0.,24.0,0.,24.0,0.,24.0,0.,24.0
1979-07-05 21:10:56.620 ,3,0,0.,24.0,0.,24.0,0.,24.0,0.,24.0
1979-07-05 21:11:20.620 ,2,1,0.,24.0,0.,24.0,0.,24.0,0.,24.0
1979-07-05 21:11:44.620 ,2,0,0.,24.0,0.,24.0,0.,24.0,0.,24.0
1979-07-05 21:12:08.620 ,1,1,0.,24.0,0.,24.0,0.,24.0,0.,24.0
1979-07-05 21:12:32.620 ,1,0,0.,24.0,0.,24.0,0.,24.0,0.,24.0
1979-07-05 21:12:56.620 ,0,1,0.,24.0,0.,24.0,0.,24.0,0.,24.0
1979-07-05 21:13:20.620 ,0,0,0.,24.0,0.,24.0,0.,24.0,0.,24.0
1979-07-05 21:13:44.620 ,0,1,0.,24.0,0.,24.0,0.,24.0,0.,24.0
1979-07-05 21:14:08.620 ,0,0,0.,24.0,0.,24.0,0.,24.0,0.,24.0
1979-07-05 21:14:32.620 ,1,1,0.,24.0,0.,24.0,0.,24.0,0.,24.0
1979-07-05 21:14:56.620 ,1,0,0.,24.0,0.,24.0,0.,24.0,0.,24.0
1979-07-05 21:15:20.620 ,2,1,0.,24.0,0.,24.0,0.,24.0,0.,24.0
1979-07-05 21:15:44.620 ,2,0,0.,24.0,0.,24.0,0.,24.0,0.,24.0
1979-07-05 21:16:08.620 ,3,1,0.,24.0,0.,24.0,0.,24.0,0.,24.0
1979-07-05 21:16:32.620 ,3,0,0.,24.0,0.,24.0,0.,24.0,0.,24.0
1979-07-05 21:16:56.620 ,4,1,0.,24.0,0.,24.0,0.,24.0,0.,24.0
1979-07-05 21:17:20.610 ,4,0,0.,24.0,0.,24.0,0.,24.0,0.,24.0
1979-07-05 21:17:44.610 ,5,1,0.,24.0,0.,24.0,0.,24.0,0.,24.0
1979-07-05 21:18:08.610 ,5,0,0.,24.0,0.,24.0,0.,24.0,0.,24.0
1979-07-05 21:18:32.610 ,6,1,0.,24.0,0.,24.0,0.,24.0,0.,24.0
1979-07-05 21:18:56.610 ,6,0,0.,24.0,0.,24.0,0.,24.0,0.,24.0
1979-07-05 21:19:20.610 ,7,1,0.,24.0,0.,24.0,0.,24.0,0.,24.0
1979-07-05 21:19:44.610 ,7,0,0.,24.0,0.,24.0,0.,24.0,0.,24.0
1979-07-05 21:20:08.610 ,7,1,0.,24.0,0.,24.0,0.,24.0,0.,24.0
1979-07-05 21:20:32.610 ,7,0,0.,24.0,0.,24.0,0.,24.0,1.,24.0
1979-07-05 21:20:56.610 ,6,1,0.,24.0,0.,24.0,0.,24.0,0.,24.0
1979-07-05 21:21:20.610 ,6,0,0.,24.0,0.,24.0,0.,24.0,0.,24.0
1979-07-05 21:21:44.610 ,5,1,0.,24.0,0.,24.0,0.,24.0,0.,24.0
1979-07-05 21:22:08.610 ,5,0,0.,24.0,0.,24.0,0.,24.0,0.,24.0
1979-07-05 21:22:32.610 ,4,1,1.,24.0,0.,24.0,0.,24.0,0.,24.0
1979-07-05 21:22:56.610 ,4,0,0.,24.0,0.,24.0,0.,24.0,0.,24.0
1979-07-05 21:23:20.610 ,3,1,0.,24.0,0.,24.0,0.,24.0,0.,24.0
1979-07-05 21:23:44.610 ,3,0,0.,24.0,0.,24.0,0.,24.0,0.,24.0
1979-07-05 21:24:08.610 ,2,1,0.,24.0,0.,24.0,0.,24.0,0.,24.0
1979-07-05 21:24:32.610 ,2,0,0.,24.0,0.,24.0,0.,24.0,0.,24.0
1979-07-05 21:24:56.610 ,1,1,0.,24.0,0.,24.0,0.,24.0,0.,24.0
1979-07-05 21:25:20.610 ,1,0,0.,24.0,0.,24.0,0.,24.0,0.,24.0
1979-07-05 21:25:44.610 ,0,1,0.,24.0,0.,24.0,0.,24.0,0.,24.0
1979-07-05 21:26:08.610 ,0,0,0.,24.0,0.,24.0,0.,24.0,0.,24.0
1979-07-05 21:26:32.610 ,0,1,0.,24.0,0.,24.0,0.,24.0,0.,24.0
1979-07-05 21:26:56.610 ,0,0,0.,24.0,0.,24.0,0.,24.0,0.,24.0
1979-07-05 21:27:20.610 ,1,1,0.,24.0,0.,24.0,0.,24.0,0.,24.0
1979-07-05 21:27:44.610 ,1,0,0.,24.0,0.,24.0,0.,24.0,0.,24.0
1979-07-05 21:28:08.610 ,2,1,0.,24.0,0.,24.0,0.,24.0,0.,24.0
1979-07-05 21:28:32.610 ,2,0,0.,24.0,0.,24.0,0.,24.0,0.,24.0
1979-07-05 21:28:56.610 ,3,1,0.,24.0,0.,24.0,0.,24.0,0.,24.0
1979-07-05 21:29:20.610 ,3,0,0.,24.0,0.,24.0,0.,24.0,0.,24.0
1979-07-05 21:29:44.610 ,4,1,0.,24.0,0.,24.0,0.,24.0,0.,24.0
1979-07-05 21:30:08.610 ,4,0,0.,24.0,0.,24.0,0.,24.0,0.,24.0
1979-07-05 21:30:32.610 ,5,1,0.,24.0,0.,24.0,0.,24.0,0.,24.0
1979-07-05 21:30:56.610 ,5,0,0.,24.0,0.,24.0,0.,24.0,0.,24.0
1979-07-05 21:31:20.610 ,6,1,0.,24.0,0.,24.0,0.,24.0,0.,24.0
1979-07-05 21:31:44.610 ,6,0,0.,24.0,0.,24.0,0.,24.0,0.,24.0
1979-07-05 21:32:08.610 ,7,1,0.,24.0,0.,24.0,0.,24.0,0.,24.0
1979-07-05 21:32:32.610 ,7,0,0.,24.0,0.,24.0,0.,24.0,0.,24.0
1979-07-05 21:32:56.610 ,7,1,0.,24.0,0.,24.0,0.,24.0,0.,24.0
1979-07-05 21:33:20.610 ,7,0,0.,24.0,0.,24.0,0.,24.0,0.,24.0
1979-07-05 21:33:44.610 ,6,1,0.,24.0,0.,24.0,0.,24.0,0.,24.0
1979-07-05 21:34:08.610 ,6,0,0.,24.0,0.,24.0,0.,24.0,0.,24.0